Probability
0 0 0 0 0 0 0 0 0 0 0 0 0 0 0 0 0 0 0 0 0 0 0 0 0 0 0 0 0 0 0 0 0 0 0 0 0 0 0 0 0 0 0 0
0 0 0 0 0 0 0 0 0 0 0 0 0 0 0 0 0 0 0 0 0 0 0 0 0 0 0 0 0 0 0 0 0 0 0 0 0 0 0 0 0 0 0 0
0 0 0 0 0 0 0 0 0 0 0 0 0 0 0 0 0 0 0 0 0 0 0 0 0 0 0 0 0 0 0 0 0 0 0 0 0 0 0 0 0 0 0 0
0 0 0 0 0 0 0 0 0 0 0 0 0 0 0 0 0 0 0 0 0 0 0 0 0 0 0 0 0 0 0 0 0 0 0 0 0 0 0 0 0 0 0 0
0 0 0 0 0 0 0 0 0 0 0 0 0 0 0 0 0 0 0 0 0 0 0 0 0 0 0 0 0 0 0 0 0 0 0 0 0 0 0 0 0 0 0 0
0 0 0 0 0 0 0 0 0 0 0 0 0 0 0 0 0 0 0 0 0 0 0 0 0 0 0 0 0 0 0 0 0 0 0 0 0 0 0 0 0 0 0 0
0 0 0 0 0 0 0 0 0 0 0 0 0 0 0 0 0 0 0 0 0 0 0 0 0 0 0 0 0 0 0 0 0 0 0 0 0 0 0 0 0 0 0 0
0 0 0 0 0 0 0 0 0 0 0 0 0 0 0 0 0 0 0 0 0 0 0 0 0 0 0 0 0 0 0 0 0 0 0 0 0 0 0 0 0 0 0 0
0 0 0 0 0 0 0 0 0 0 0 0 0 0 0 0 0 0 0 0 0 0 0 0 0 0 0 0 0 0 0 0 0 0 0 0 0 0 0 0 0 0 0 0
0 0 0 0 0 0 0 0 0 0 0 0 0 0 0 0 0 0 0 0 0 0 0 0 0 0 0 0 0 0 0 0 0 0 0 0 0 0 0 0 0 0 0 0
0 0 0 0 0 0 0 0 0 0 0 0 0 0 0 0 0 0 0 0 0 0 0 0 0 0 0 0 0 0 0 0 0 0 0 0 0 0 0 0 0 0 0 0
0 0 0 0 0 0 0 0 0 0 0 0 0 0 0 0 0 0 0 0 0 0 0 0 0 0 0 0 0 0 0 0 0 0 0 0 0 0 0 0 0 0 0 0
0 0 0 0 0 0 0 0 0 0 0 0 0 0 0 0 0 0 0 0 0 0 0 0 0 0 0 0 0 0 0 0 0 0 0 0 0 0 0 0 0 0 0 0
0 0 0 0 0 0 0 0 0 0 0 0 0 0 0 0 0 0 0 0 0 0 0 0 0 0 0 0 0 0 0 0 0 0 0 0 0 0 0 0 0 0 0 0
0 0 0 0 0 0 0 0 0 0 0 0 0 0 0 0 0 0 0 0 0 0 0 0 0 0 0 0 0 0 0 0 0 0 0 0 0 0 0 0 0 0 0 0
0 0 0 0 0 0 0 0 0 0 0 0 0 0 0 0 0 0 0 0 0 0 0 0 0 0 0 0 0 0 0 0 0 0 0 0 0 0 0 0 0 0 0 0
0 0 0 0 0 0 0 0 0 0 0 0 0 0 0 0 0 0 0 0 0 0 0 0 0 0 0 0 0 0 0 0 0 0 0 0 0 0 0 0 0 0 0 0
0 0 0 0 0 0 0 0 0 0 0 0 0 0 0 0 0 0 0 0 0 0 0 0 0 0 0 0 0 0 0 0 0 0 0 0 0 0 0 0 0 0 0 0
0 0 0 0 0 0 0 0 0 0 0 0 0 0 0 0 0 0 0 0 0 0 0 0 0 0 0 0 0 0 0 0 0 0 0 0 0 0 0 0 0 0 0 0
0 0 0 0 0 0 0 0 0 0 0 0 0 0 0 0 0 0 0 0 0 0 0 0 0 0 0 0 0 0 0 0 0 0 0 0 0 0 0 0 0 0 0 0
0 0 0 0 0 0 0 0 0 0 0 0 0 0 0 0 0 0 0 0 0 0 0 0 0 0 0 0 0 0 0 0 0 0 0 0 0 0 0 0 0 0 0 0
0 0 0 0 0 0 0 0 0 0 0 0 0 0 0 0 0 0 0 0 0 0 0 0 0 0 0 0 0 0 0 0 0 0 0 0 0 0 0 0 0 0 0 0
0 0 0 0 0 0 0 0 0 0 0 0 0 0 0 0 0 0 0 0 0 0 0 0 0 0 0 0 0 0 0 0 0 0 0 0 0 0 0 0 0 0 0 0
0 0 0 0 0 0 0 0 0 0 0 0 0 0 0 0 0 0 0 0 0 0 0 0 0 0 0 0 0 0 0 0 0 0 0 0 0 0 0 0 0 0 0 0
0 0 0 0 0 0 0 0 0 0 0 0 0 0 0 0 0 0 0 0 0 0 0 0 0 0 0 0 0 0 0 0 0 0 0 0 0 0 0 0 0 0 0 0
0 0 0 0 0 0 0 0 0 0 0 0 0 0 0 0 0 0 0 0 0 0 0 0 0 0 0 0 0 0 0 0 0 0 0 0 0 0 0 0 0 0 0 0
Height
5812 5815 5817 5819 5821 5824 5825 5828 5830 5833 5835 5838 5840 5842 5844 5846 5848 5850 5852 5854 5855 5857 5859 5860 5862 5863 5864 5865 5866 5867 5867 5867 5868 5868 5867 5867 5866 5865 5864 5862 5860 5858 5856 5854
5813 5815 5817 5819 5821 5823 5825 5827 5830 5832 5834 5837 5839 5841 5843 5845 5847 5849 5851 5853 5854 5856 5858 5860 5861 5863 5864 5865 5866 5866 5866 5867 5867 5867 5867 5866 5865 5864 5863 5861 5859 5858 5855 5853
5813 5816 5817 5819 5821 5823 5825 5828 5830 5832 5834 5836 5839 5841 5843 5844 5846 5848 5850 5852 5854 5855 5857 5859 5860 5862 5863 5864 5865 5865 5866 5866 5866 5866 5866 5865 5864 5863 5862 5860 5859 5857 5855 5853
5814 5816 5818 5820 5822 5823 5825 5828 5830 5832 5834 5835 5838 5840 5842 5843 5845 5847 5849 5851 5853 5855 5857 5858 5860 5861 5863 5863 5864 5864 5865 5865 5865 5865 5865 5864 5863 5862 5861 5859 5858 5856 5854 5852
5815 5817 5818 5820 5822 5824 5826 5828 5830 5832 5833 5836 5837 5840 5842 5843 5845 5847 5849 5851 5853 5855 5856 5858 5859 5860 5862 5862 5863 5863 5864 5864 5864 5864 5864 5863 5862 5861 5860 5859 5857 5855 5853 5851
5816 5817 5819 5821 5822 5824 5826 5829 5830 5832 5834 5836 5837 5839 5842 5842 5844 5846 5848 5850 5852 5854 5856 5857 5858 5860 5861 5861 5862 5863 5863 5863 5863 5863 5863 5862 5861 5860 5859 5858 5856 5854 5853 5851
5816 5818 5819 5821 5822 5825 5827 5830 5831 5832 5834 5836 5837 5839 5842 5842 5844 5845 5847 5849 5851 5853 5855 5856 5858 5859 5859 5860 5861 5862 5862 5862 5862 5862 5861 5861 5860 5859 5858 5857 5855 5854 5852 5850
5816 5818 5820 5821 5823 5825 5827 5830 5833 5834 5835 5836 5837 5839 5841 5842 5844 5845 5847 5849 5850 5852 5854 5855 5857 5858 5859 5859 5860 5860 5861 5861 5861 5861 5860 5860 5859 5858 5857 5856 5854 5853 5851 5849
5817 5819 5820 5822 5824 5826 5827 5829 5832 5834 5835 5837 5838 5840 5841 5842 5844 5845 5847 5848 5850 5852 5853 5855 5856 5857 5858 5858 5859 5859 5859 5860 5860 5859 5859 5858 5858 5857 5855 5854 5853 5851 5850 5848
5818 5820 5821 5822 5824 5826 5828 5830 5832 5834 5835 5836 5838 5840 5842 5842 5844 5845 5846 5848 5850 5851 5853 5854 5855 5856 5857 5857 5858 5858 5858 5858 5858 5858 5857 5857 5856 5855 5854 5853 5851 5850 5849 5847
5818 5820 5822 5823 5824 5826 5829 5830 5832 5834 5836 5837 5838 5842 5841 5842 5843 5844 5846 5847 5849 5850 5852 5853 5854 5855 5855 5856 5856 5857 5857 5857 5857 5856 5856 5855 5854 5853 5852 5851 5850 5848 5847 5845
5818 5820 5821 5823 5824 5826 5828 5830 5832 5834 5836 5837 5838 5843 5840 5842 5843 5844 5845 5846 5848 5849 5851 5852 5852 5853 5854 5854 5855 5855 5855 5855 5855 5854 5854 5853 5852 5851 5850 5849 5848 5846 5845 5843
5819 5820 5822 5823 5826 5827 5828 5830 5831 5833 5835 5836 5838 5842 5840 5841 5842 5843 5844 5846 5847 5848 5850 5850 5851 5852 5852 5853 5853 5853 5853 5853 5852 5852 5851 5851 5850 5849 5848 5847 5846 5844 5843 5841
5818 5820 5822 5824 5825 5826 5828 5829 5831 5832 5833 5835 5837 5838 5839 5840 5841 5843 5844 5845 5846 5847 5848 5849 5849 5850 5850 5850 5851 5851 5850 5850 5850 5849 5849 5848 5847 5847 5845 5844 5843 5841 5840 5838
5817 5819 5820 5822 5823 5825 5827 5828 5830 5831 5832 5834 5835 5836 5838 5839 5840 5841 5843 5844 5845 5845 5846 5847 5847 5848 5848 5848 5848 5847 5847 5847 5846 5846 5846 5845 5844 5843 5842 5841 5839 5838 5836 5835
5816 5818 5819 5821 5822 5823 5825 5826 5828 5829 5831 5832 5833 5835 5836 5837 5838 5840 5841 5842 5842 5843 5844 5844 5845 5845 5845 5845 5844 5844 5843 5843 5842 5842 5842 5841 5840 5839 5838 5837 5835 5834 5832 5831
5814 5816 5818 5819 5820 5821 5823 5825 5826 5827 5829 5830 5831 5833 5834 5835 5836 5837 5838 5839 5840 5840 5841 5841 5842 5842 5842 5841 5841 5840 5840 5839 5838 5838 5837 5837 5836 5835 5833 5832 5830 5829 5827 5826
5812 5813 5815 5816 5819 5820 5824 5823 5824 5825 5826 5828 5829 5830 5831 5832 5833 5834 5835 5836 5837 5837 5838 5838 5838 5838 5838 5837 5837 5836 5835 5834 5834 5833 5832 5831 5830 5829 5828 5826 5825 5823 5821 5820
5808 5810 5812 5813 5815 5817 5819 5820 5821 5822 5824 5825 5826 5827 5828 5829 5830 5831 5832 5833 5834 5834 5834 5834 5834 5834 5833 5833 5832 5831 5830 5829 5828 5827 5827 5826 5825 5823 5822 5820 5818 5816 5815 5812
5805 5807 5809 5810 5812 5814 5817 5818 5818 5820 5821 5822 5823 5824 5825 5826 5827 5829 5829 5829 5830 5830 5830 5830 5830 5829 5828 5828 5827 5826 5825 5824 5823 5821 5820 5819 5818 5816 5815 5813 5811 5809 5807 5804
5801 5803 5805 5806 5808 5810 5813 5814 5815 5818 5819 5819 5819 5820 5822 5823 5824 5825 5825 5825 5826 5826 5826 5825 5825 5824 5823 5822 5821 5820 5819 5817 5816 5815 5813 5812 5810 5809 5807 5804 5802 5800 5798 5795
5797 5799 5801 5802 5804 5808 5808 5809 5811 5813 5813 5814 5815 5816 5817 5818 5819 5820 5820 5821 5821 5821 5821 5820 5820 5819 5818 5816 5815 5813 5812 5811 5809 5807 5806 5804 5802 5800 5797 5795 5793 5790 5788 5785
5792 5795 5796 5799 5802 5802 5803 5805 5806 5807 5809 5810 5811 5812 5813 5813 5814 5815 5815 5815 5815 5815 5815 5814 5813 5812 5811 5810 5808 5806 5805 5803 5801 5799 5797 5795 5792 5790 5788 5785 5783 5780 5777 5775
5787 5789 5791 5793 5795 5796 5797 5799 5800 5802 5803 5805 5806 5807 5807 5808 5809 5809 5809 5809 5809 5808 5808 5807 5806 5805 5804 5802 5800 5799 5797 5794 5792 5790 5788 5785 5783 5780 5778 5775 5772 5769 5766 5763
5782 5783 5785 5787 5789 5790 5791 5793 5794 5796 5797 5799 5800 5801 5801 5802 5802 5802 5802 5802 5802 5801 5800 5799 5798 5797 5795 5794 5792 5790 5788 5785 5783 5780 5778 5775 5772 5769 5766 5763 5760 5757 5754 5751
5776 5778 5779 5781 5783 5784 5786 5787 5788 5789 5791 5792 5793 5794 5794 5795 5795 5795 5794 5794 5793 5793 5792 5791 5790 5788 5786 5784 5782 5780 5778 5775 5772 5770 5767 5764 5761 5758 5754 5751 5748 5744 5741 5737
Wind_Speed
11 11 11 11 11 10 11 11 13 12 12 12 12 12 13 13 13 12 12 12 11 11 10 11 10 8 7 6 4 4 4 3 2 3 4 5 6 7 8 9 10 11 11 12
10 10 10 10 10 10 10 11 12 12 12 12 12 12 13 13 13 13 12 12 12 11 11 11 10 8 7 6 5 4 3 3 3 3 4 5 6 7 8 9 10 11 11 12
10 10 10 10 10 11 10 11 11 11 11 12 12 12 13 13 12 12 12 12 12 12 11 11 10 9 7 6 5 4 4 4 4 4 4 5 6 7 8 9 10 11 11 12
8 9 9 9 10 10 10 10 11 11 12 12 12 11 13 13 13 12 12 13 12 12 12 11 11 9 8 6 5 4 4 3 3 4 4 5 6 8 9 9 10 11 12 12
8 9 9 9 10 10 10 10 11 11 11 11 11 12 12 12 12 12 12 13 12 12 12 11 10 9 7 6 5 5 4 4 4 4 5 6 7 8 9 10 10 11 12 12
8 8 8 9 10 10 10 11 11 11 11 10 10 11 12 11 11 11 11 12 12 12 11 10 9 8 7 6 6 5 4 4 5 5 5 6 7 8 9 10 10 11 12 12
8 8 9 9 10 11 11 11 11 10 10 9 9 10 11 11 10 11 11 11 11 11 11 9 8 7 6 6 6 5 4 4 5 5 6 6 7 8 9 9 10 10 11 12
8 8 8 8 9 11 11 11 10 8 8 9 9 10 10 11 11 10 10 11 11 11 10 9 8 7 6 6 6 5 5 4 5 5 6 6 7 8 9 9 10 10 10 11
8 8 8 7 8 11 11 12 11 9 10 10 10 10 10 10 10 10 10 11 11 11 10 9 8 7 7 6 6 5 5 5 5 6 6 7 8 8 9 10 10 10 10 11
8 8 8 8 9 10 11 11 12 10 9 9 9 9 9 9 9 9 10 10 10 10 10 9 8 7 7 6 6 5 5 6 6 6 6 7 8 9 9 10 10 10 11 11
8 8 8 8 9 10 11 11 10 9 8 7 7 8 9 9 9 9 9 9 9 10 9 8 8 7 6 6 6 6 6 6 6 7 7 8 8 9 10 10 10 10 11 11
8 8 8 8 9 10 10 10 9 9 8 7 7 8 9 9 9 9 9 9 9 8 8 8 8 7 7 7 7 7 7 7 7 7 8 9 9 10 10 11 11 11 11 12
8 8 8 8 9 10 9 9 9 10 9 8 7 7 9 9 9 9 8 8 8 8 8 7 7 7 7 7 7 7 7 8 8 8 9 10 10 11 11 12 13 13 13 14
10 9 9 9 9 9 9 8 8 9 9 8 8 7 9 9 8 9 8 8 8 8 8 8 7 7 7 7 7 8 9 9 9 10 11 11 12 13 13 14 14 15 15 15
10 10 10 10 10 11 10 10 9 9 9 9 9 9 9 9 10 10 10 9 9 9 8 8 8 8 8 8 9 9 10 11 11 12 12 13 14 14 15 15 16 16 17 17
11 11 11 11 11 11 11 11 10 10 10 10 10 10 10 10 10 10 10 10 10 9 9 9 9 9 9 10 10 11 12 13 13 14 14 15 16 16 17 18 18 19 19 20
13 13 13 13 12 12 11 11 11 11 11 11 10 10 12 12 11 11 11 11 11 11 11 11 11 11 12 12 12 13 14 15 16 16 17 18 18 19 20 20 21 21 22 22
15 14 14 14 14 13 11 12 12 12 12 11 11 11 12 12 12 11 11 12 11 11 12 12 13 13 14 14 15 16 17 18 18 19 20 20 21 21 22 23 24 24 25 25
16 16 15 15 15 14 13 13 13 13 12 12 12 12 12 12 12 12 12 12 12 13 13 14 14 15 16 16 17 18 19 20 21 21 22 22 23 23 24 25 26 27 27 28
18 18 17 16 16 15 14 14 14 14 14 14 14 14 14 14 13 13 13 14 14 14 15 15 16 16 17 18 19 20 22 22 23 24 24 25 26 26 27 28 29 30 30 31
18 19 19 18 18 16 15 15 15 15 14 15 16 16 16 15 15 15 15 16 16 17 17 18 18 19 19 20 21 23 24 24 25 26 27 28 29 30 31 31 32 32 33 33
19 19 18 18 18 16 17 17 16 16 16 17 17 17 18 17 17 17 17 18 18 18 19 20 20 21 22 23 24 25 26 26 27 28 30 31 32 33 33 34 34 35 35 35
21 20 19 19 18 17 18 18 18 18 18 18 18 18 19 19 19 19 20 21 21 21 22 22 23 24 25 26 27 28 28 29 30 31 32 33 34 34 35 36 36 37 37 38
23 22 22 21 19 20 20 20 20 21 21 20 20 20 20 21 21 22 22 22 23 24 25 26 26 27 28 29 30 30 31 32 32 33 34 35 35 36 37 38 38 39 40 40
23 23 23 22 22 22 22 22 22 22 22 23 23 23 23 23 23 24 25 25 26 27 28 29 29 30 31 32 33 33 33 34 35 36 37 37 38 39 39 40 41 42 43 44
24 24 24 24 24 25 24 24 24 24 24 25 25 25 25 25 26 27 28 28 29 30 30 31 31 32 33 34 34 35 35 36 37 38 39 39 40 41 42 43 44 45 45 46
Wind_Direction
194 193 191 197 201 204 204 204 200 201 199 202 202 200 198 199 199 197 195 196 197 197 197 199 204 205 205 204 213 224 229 248 284 308 323 329 333 336 338 341 344 346 348 348
189 191 192 192 193 195 196 195 197 202 202 200 200 201 202 203 204 202 195 194 193 192 195 199 200 199 203 211 219 230 236 250 279 301 313 325 331 335 340 343 346 348 349 350
190 190 188 187 188 190 192 192 195 201 198 196 196 198 198 201 201 202 201 198 196 197 195 194 199 203 208 214 224 233 245 256 273 294 313 324 331 338 343 345 345 347 348 350
182 183 184 182 183 186 189 190 192 194 193 193 194 195 195 199 200 204 203 200 199 197 194 194 200 204 208 216 227 236 247 257 278 297 316 326 330 338 342 342 344 346 348 349
176 179 181 180 181 184 187 187 185 183 187 189 191 191 192 193 197 201 202 201 200 198 195 196 201 205 212 223 230 238 254 270 285 298 310 319 327 333 337 339 342 346 348 349
179 186 190 185 184 186 187 187 185 186 188 188 184 186 188 193 196 198 199 198 198 199 199 198 202 208 219 228 231 239 253 268 286 298 307 316 324 329 333 337 340 343 345 346
182 185 186 188 186 187 186 186 186 186 190 188 185 189 191 194 195 193 194 195 196 199 200 203 209 217 227 230 232 238 257 273 285 294 304 315 322 328 332 336 338 341 343 346
183 182 181 181 184 187 184 188 187 190 190 186 185 187 188 189 187 187 191 193 195 198 203 205 209 217 227 228 231 243 259 280 295 302 310 317 321 325 330 334 336 338 341 345
188 184 185 182 182 185 186 189 190 192 190 187 186 184 182 184 183 184 190 194 199 200 202 204 207 217 229 230 236 248 260 282 298 303 308 313 317 321 326 330 332 334 336 340
192 190 192 192 191 186 189 192 193 192 189 191 188 188 186 189 191 192 195 197 200 202 201 207 215 223 224 229 242 253 268 280 290 298 303 310 314 319 325 328 329 329 331 333
186 188 188 191 193 192 192 194 193 197 197 198 196 190 190 195 197 199 200 202 205 206 211 218 223 231 231 241 251 264 275 279 285 295 302 307 312 316 320 325 326 325 326 327
191 193 196 197 195 195 200 200 200 200 199 203 207 198 196 199 201 202 203 204 202 207 215 220 228 230 238 250 259 268 276 284 289 294 300 307 310 312 314 317 317 318 321 323
205 204 204 202 199 200 200 202 202 204 205 211 213 203 200 204 208 208 207 203 206 211 216 222 228 234 245 254 260 267 277 284 289 293 297 302 305 306 307 310 311 312 315 316
213 213 211 204 201 204 206 208 207 208 208 213 213 209 208 211 217 217 215 214 216 220 227 233 236 242 251 258 267 274 278 282 285 289 294 297 300 302 303 305 306 309 310 311
217 215 213 209 211 213 215 217 218 216 216 219 218 217 215 218 222 223 223 225 229 232 236 240 245 252 259 267 273 277 279 281 282 287 292 296 299 300 301 303 304 305 306 308
218 218 217 216 218 221 223 224 223 220 222 224 223 223 224 226 227 228 230 234 238 239 243 249 254 257 264 271 275 279 282 284 285 287 290 294 296 298 300 302 304 303 303 304
228 226 223 224 224 224 225 226 226 226 229 230 227 226 226 231 235 237 238 239 240 242 247 253 260 264 268 271 273 279 283 285 285 285 287 290 294 297 299 301 302 301 300 300
229 229 226 226 228 228 227 231 232 233 234 233 231 232 232 232 232 236 241 243 245 249 253 257 263 269 273 272 274 280 284 285 286 286 288 289 292 295 298 299 300 299 298 298
232 233 232 228 230 229 230 235 236 236 234 235 235 236 236 235 237 240 245 249 251 255 259 263 268 273 276 276 278 282 284 285 286 286 287 289 292 294 295 296 297 298 298 297
235 237 238 236 237 234 235 237 238 238 236 238 239 240 240 241 243 246 250 252 255 258 263 269 274 278 280 280 281 284 286 287 287 287 287 289 291 292 293 294 295 295 295 295
238 239 241 242 243 241 240 242 242 242 241 241 243 244 244 245 248 250 253 255 259 264 268 273 277 280 282 283 284 286 288 288 288 288 287 288 289 290 292 293 294 295 295 295
244 244 244 246 246 244 244 245 246 245 244 244 245 247 250 251 254 256 257 259 264 268 272 276 279 282 285 287 287 287 288 288 288 288 289 289 289 291 292 293 293 294 295 295
244 245 246 246 248 248 246 247 247 247 247 247 248 251 254 257 259 259 261 264 267 272 275 279 282 284 286 288 289 289 289 289 289 290 291 291 291 292 293 293 294 295 295 295
246 246 247 245 245 246 246 246 247 248 249 251 253 255 257 259 260 262 265 269 272 275 278 280 282 283 285 287 289 290 290 290 291 292 292 292 292 292 293 294 294 295 295 295
248 249 249 248 246 246 247 248 249 250 252 254 256 258 260 262 265 267 269 272 274 277 278 280 281 282 284 287 288 289 290 291 291 292 292 293 293 293 293 294 294 295 294 294
249 251 251 249 247 248 250 252 253 255 257 259 260 262 264 267 269 271 272 274 276 277 278 279 281 282 284 286 287 289 290 292 293 292 293 293 293 293 294 294 294 294 294 294